map of DHN home
DHN - Airport
Location
City:  Dothan, Alabama, United States
Name:Dothan Regional
ICAO:KDHN
IATA:DHN
FAA LID:DHN

Details
Type:Airport (Part 139 Class I)
Use:Public/Civil
Latitude:3119'16"N (31.321028)
Longitude:8526'58"W (-85.449471)
Datum:WGS 1984
Elevation:400 ft (122 m)
Variation:4.14W (WMM2015 magnetic declination)
-0.10 annual change
Runways:2
Longest:8499 × 150 ft (2590 × 45.5 m), paved

Time
Time Zone:UTC-6 (DST-5)
Local Time:

Weather
METAR:KDHN 200853Z AUTO 34003KT 10SM CLR 25/22 A2998 RMK AO2 SLP146 T02500217 56005
TAF:KDHN 200521Z 2006/2106 33007KT P6SM SCT250
FM201600 28004KT P6SM SCT040 SCT250

Related Locations
Nearby:
Farthest:USL: 11248 mi / 18102 km
Useless Loop, WA, AU

Find:

   beyond  
but within

Other Information
Maps:
Delays:
NOTAMs:
Links:
Sources:

  
  • flag of United States
  • flag of Alabama
  

Airport Diagram

Airport diagram for DHN

Airport diagram PDF

Sectional Chart

Flight Planning
at skyvector.com

Satellite Image

Google Maps Satellite view

 

Copyright © 2004-2018 Karl L. Swartz. All rights reserved.
The Great Circle Mapper name and logo are trademarks of the Great Circle Mapper.
All other trademarks mentioned herein belong to their respective owners.
Please see credits for attibutions and further copyright information.

  Follow gcmap on Facebook Follow gcmap on Twitter Follow gcmap on Google+ GCmap on LinkedIn

hCard Microformat

Geo Microformat